Time,TemperatureF,DewpointF,PressureIn,WindDirection,WindDirectionDegrees,WindSpeedMPH,WindSpeedGustMPH,Humidity,HourlyPrecipIn,Conditions,Clouds,dailyrainin,SoftwareType,DateUTC
2013-04-07 00:03:00,45.0,18.0,-100.00,South,170,5.0,12.0,34,0.00,,,-99.99,,2013-04-07 04:03:00,
2013-04-07 00:14:00,45.0,18.0,-100.00,South,175,9.0,14.0,33,0.00,,,-99.99,,2013-04-07 04:14:00,
2013-04-07 00:23:00,45.0,18.0,-100.00,South,175,9.0,14.0,33,0.00,,,-99.99,,2013-04-07 04:23:00,
2013-04-07 00:32:00,45.0,18.0,-100.00,South,180,8.0,14.0,33,0.00,,,-99.99,,2013-04-07 04:32:00,
2013-04-07 00:43:00,45.0,18.0,-100.00,South,190,11.0,17.0,33,0.00,,,-99.99,,2013-04-07 04:43:00,
2013-04-07 00:52:00,45.0,18.0,-100.00,South,190,11.0,17.0,33,0.00,,,-99.99,,2013-04-07 04:52:00,
2013-04-07 01:02:00,45.0,19.0,-100.00,South,180,9.0,15.0,35,0.00,,,-99.99,,2013-04-07 05:02:00,
2013-04-07 01:12:00,45.0,20.0,-100.00,South,180,11.0,21.0,36,0.00,,,-99.99,,2013-04-07 05:12:00,
2013-04-07 01:23:00,45.0,20.0,-100.00,South,180,11.0,21.0,36,0.00,,,-99.99,,2013-04-07 05:23:00,
2013-04-07 01:33:00,45.0,20.0,-100.00,South,185,11.0,17.0,37,0.00,,,-99.99,,2013-04-07 05:33:00,
2013-04-07 01:43:00,45.0,21.0,-100.00,South,185,11.0,19.0,39,0.00,,,-99.99,,2013-04-07 05:43:00,
2013-04-07 01:52:00,45.0,21.0,-100.00,South,185,11.0,19.0,39,0.00,,,-99.99,,2013-04-07 05:52:00,
2013-04-07 02:02:00,45.0,21.0,-100.00,South,180,11.0,21.0,39,0.00,,,-99.99,,2013-04-07 06:02:00,
2013-04-07 02:12:00,44.0,22.0,-100.00,South,190,12.0,21.0,40,0.00,,,-99.99,,2013-04-07 06:12:00,
2013-04-07 02:22:00,44.0,22.0,-100.00,South,190,12.0,21.0,40,0.00,,,-99.99,,2013-04-07 06:22:00,
2013-04-07 02:32:00,44.0,22.0,-100.00,South,180,9.0,14.0,41,0.00,,,-99.99,,2013-04-07 06:32:00,
2013-04-07 02:42:00,44.0,23.0,-100.00,South,175,9.0,17.0,42,0.00,,,-99.99,,2013-04-07 06:42:00,
2013-04-07 02:52:00,44.0,23.0,-100.00,South,175,9.0,17.0,42,0.00,,,-99.99,,2013-04-07 06:52:00,
2013-04-07 03:02:00,44.0,24.0,-100.00,South,185,12.0,20.0,44,0.00,,,-99.99,,2013-04-07 07:02:00,
2013-04-07 03:12:00,44.0,24.0,-100.00,South,180,8.0,20.0,45,0.00,,,-99.99,,2013-04-07 07:12:00,
2013-04-07 03:22:00,44.0,24.0,-100.00,South,180,8.0,20.0,45,0.00,,,-99.99,,2013-04-07 07:22:00,
2013-04-07 03:33:00,43.0,24.0,-100.00,SSW,195,12.0,21.0,47,0.00,,,-99.99,,2013-04-07 07:33:00,
2013-04-07 03:42:00,43.0,24.0,-100.00,SSW,195,14.0,24.0,47,0.00,,,-99.99,,2013-04-07 07:42:00,
2013-04-07 03:52:00,43.0,24.0,-100.00,SSW,195,14.0,24.0,47,0.00,,,-99.99,,2013-04-07 07:52:00,
2013-04-07 04:02:00,43.0,24.0,-100.00,South,170,9.0,19.0,48,0.00,,,-99.99,,2013-04-07 08:02:00,
2013-04-07 04:12:00,43.0,25.0,-100.00,South,180,10.0,21.0,48,0.00,,,-99.99,,2013-04-07 08:12:00,
2013-04-07 04:22:00,43.0,25.0,-100.00,South,180,10.0,21.0,48,0.00,,,-99.99,,2013-04-07 08:22:00,
2013-04-07 04:33:00,43.0,24.0,-100.00,SSW,195,9.0,21.0,48,0.00,,,-99.99,,2013-04-07 08:33:00,
2013-04-07 04:42:00,43.0,25.0,-100.00,South,190,12.0,21.0,49,0.00,,,-99.99,,2013-04-07 08:42:00,
2013-04-07 04:52:00,43.0,25.0,-100.00,South,190,12.0,21.0,49,0.00,,,-99.99,,2013-04-07 08:52:00,
2013-04-07 05:02:00,42.0,25.0,-100.00,South,190,11.0,19.0,49,0.00,,,-99.99,,2013-04-07 09:02:00,
2013-04-07 05:12:00,42.0,26.0,-100.00,South,180,8.0,19.0,51,0.00,,,-99.99,,2013-04-07 09:12:00,
2013-04-07 05:22:00,42.0,26.0,-100.00,South,180,8.0,19.0,51,0.00,,,-99.99,,2013-04-07 09:22:00,
2013-04-07 05:33:00,42.0,26.0,-100.00,South,180,8.0,17.0,52,0.00,,,-99.99,,2013-04-07 09:33:00,
2013-04-07 05:43:00,42.0,26.0,-100.00,South,185,11.0,17.0,53,0.00,,,-99.99,,2013-04-07 09:43:00,
2013-04-07 05:53:00,42.0,26.0,-100.00,South,185,11.0,17.0,53,0.00,,,-99.99,,2013-04-07 09:53:00,
2013-04-07 06:04:00,42.0,26.0,-100.00,South,170,10.0,22.0,54,0.00,,,-99.99,,2013-04-07 10:04:00,
2013-04-07 06:13:00,41.0,26.0,-100.00,South,180,7.0,20.0,55,0.00,,,-99.99,,2013-04-07 10:13:00,
2013-04-07 06:23:00,41.0,26.0,-100.00,South,180,7.0,20.0,55,0.00,,,-99.99,,2013-04-07 10:23:00,
2013-04-07 06:34:00,42.0,27.0,-100.00,South,185,9.0,17.0,55,0.00,,,-99.99,,2013-04-07 10:34:00,
2013-04-07 06:43:00,42.0,26.0,-100.00,SSW,195,11.0,19.0,54,0.00,,,-99.99,,2013-04-07 10:43:00,
2013-04-07 06:53:00,42.0,26.0,-100.00,SSW,195,11.0,19.0,54,0.00,,,-99.99,,2013-04-07 10:53:00,
2013-04-07 07:03:00,42.0,26.0,-100.00,South,180,11.0,19.0,53,0.00,,,-99.99,,2013-04-07 11:03:00,
2013-04-07 07:12:00,42.0,25.0,-100.00,South,175,13.0,20.0,52,0.00,,,-99.99,,2013-04-07 11:12:00,
2013-04-07 07:22:00,42.0,25.0,-100.00,South,175,13.0,20.0,52,0.00,,,-99.99,,2013-04-07 11:22:00,
2013-04-07 07:33:00,41.0,26.0,-100.00,South,170,12.0,22.0,53,0.00,,,-99.99,,2013-04-07 11:33:00,
2013-04-07 07:42:00,42.0,25.0,-100.00,South,180,11.0,20.0,52,0.00,,,-99.99,,2013-04-07 11:42:00,
2013-04-07 07:52:00,42.0,25.0,-100.00,South,180,11.0,20.0,52,0.00,,,-99.99,,2013-04-07 11:52:00,
2013-04-07 08:03:00,42.0,26.0,-100.00,SSW,200,13.0,23.0,52,0.00,,,-99.99,,2013-04-07 12:03:00,
2013-04-07 08:12:00,42.0,26.0,-100.00,South,185,13.0,25.0,51,0.00,,,-99.99,,2013-04-07 12:12:00,
2013-04-07 08:23:00,42.0,26.0,-100.00,South,185,13.0,25.0,51,0.00,,,-99.99,,2013-04-07 12:23:00,
2013-04-07 08:34:00,43.0,26.0,-100.00,South,190,12.0,22.0,51,0.00,,,-99.99,,2013-04-07 12:34:00,
2013-04-07 08:43:00,44.0,27.0,-100.00,South,180,12.0,21.0,51,0.00,,,-99.99,,2013-04-07 12:43:00,
2013-04-07 08:53:00,44.0,27.0,-100.00,South,180,12.0,21.0,51,0.00,,,-99.99,,2013-04-07 12:53:00,
2013-04-07 09:04:00,44.0,27.0,-100.00,South,180,12.0,21.0,51,0.00,,,-99.99,,2013-04-07 13:04:00,
2013-04-07 09:13:00,45.0,27.0,-100.00,South,185,12.0,23.0,50,0.00,,,-99.99,,2013-04-07 13:13:00,
2013-04-07 09:22:00,45.0,27.0,-100.00,South,185,12.0,23.0,50,0.00,,,-99.99,,2013-04-07 13:22:00,
2013-04-07 09:33:00,45.0,28.0,-100.00,South,190,12.0,21.0,50,0.00,,,-99.99,,2013-04-07 13:33:00,
2013-04-07 09:42:00,46.0,29.0,-100.00,South,180,11.0,17.0,50,0.00,,,-99.99,,2013-04-07 13:42:00,
2013-04-07 09:52:00,46.0,29.0,-100.00,South,180,11.0,17.0,50,0.00,,,-99.99,,2013-04-07 13:52:00,
2013-04-07 10:02:00,47.0,29.0,-100.00,South,185,12.0,23.0,49,0.00,,,-99.99,,2013-04-07 14:02:00,
2013-04-07 10:12:00,48.0,29.0,-100.00,SSW,195,10.0,19.0,49,0.00,,,-99.99,,2013-04-07 14:12:00,
2013-04-07 10:23:00,48.0,29.0,-100.00,SSW,195,10.0,19.0,49,0.00,,,-99.99,,2013-04-07 14:23:00,
2013-04-07 10:33:00,48.0,30.0,-100.00,South,190,9.0,20.0,49,0.00,,,-99.99,,2013-04-07 14:33:00,
2013-04-07 10:43:00,48.0,30.0,-100.00,South,175,11.0,21.0,49,0.00,,,-99.99,,2013-04-07 14:43:00,
2013-04-07 10:53:00,48.0,30.0,-100.00,South,175,11.0,21.0,49,0.00,,,-99.99,,2013-04-07 14:53:00,
2013-04-07 11:03:00,50.0,31.0,-100.00,South,185,11.0,18.0,47,0.00,,,-99.99,,2013-04-07 15:03:00,
2013-04-07 11:13:00,51.0,32.0,-100.00,South,175,8.0,19.0,47,0.00,,,-99.99,,2013-04-07 15:13:00,
2013-04-07 11:22:00,51.0,32.0,-100.00,South,175,8.0,19.0,47,0.00,,,-99.99,,2013-04-07 15:22:00,
2013-04-07 11:35:00,54.0,34.0,-100.00,SSW,200,11.0,20.0,46,0.00,,,-99.99,,2013-04-07 15:35:00,
2013-04-07 11:44:00,56.0,34.0,-100.00,South,170,9.0,21.0,44,0.00,,,-99.99,,2013-04-07 15:44:00,
2013-04-07 11:53:00,56.0,34.0,-100.00,South,170,9.0,21.0,44,0.00,,,-99.99,,2013-04-07 15:53:00,
2013-04-07 12:04:00,56.0,34.0,-100.00,SSW,200,9.0,23.0,44,0.00,,,-99.99,,2013-04-07 16:04:00,
2013-04-07 12:13:00,58.0,35.0,-100.00,South,190,6.0,18.0,43,0.00,,,-99.99,,2013-04-07 16:13:00,
2013-04-07 12:24:00,58.0,35.0,-100.00,South,190,6.0,18.0,43,0.00,,,-99.99,,2013-04-07 16:24:00,
2013-04-07 12:33:00,57.0,35.0,-100.00,SSW,200,12.0,22.0,43,0.00,,,-99.99,,2013-04-07 16:33:00,
2013-04-07 12:43:00,59.0,36.0,-100.00,SSW,210,11.0,23.0,42,0.00,,,-99.99,,2013-04-07 16:43:00,
2013-04-07 12:53:00,59.0,36.0,-100.00,SSW,210,11.0,23.0,42,0.00,,,-99.99,,2013-04-07 16:53:00,
2013-04-07 13:05:00,60.0,36.0,-100.00,South,175,14.0,22.0,41,0.00,,,-99.99,,2013-04-07 17:05:00,
2013-04-07 13:13:00,59.0,35.0,-100.00,SSW,210,14.0,27.0,41,0.00,,,-99.99,,2013-04-07 17:13:00,
2013-04-07 13:23:00,59.0,35.0,-100.00,SSW,210,14.0,27.0,41,0.00,,,-99.99,,2013-04-07 17:23:00,
2013-04-07 13:33:00,59.0,35.0,-100.00,South,180,14.0,26.0,41,0.00,,,-99.99,,2013-04-07 17:33:00,
2013-04-07 13:43:00,62.0,38.0,-100.00,SSW,210,7.0,20.0,41,0.00,,,-99.99,,2013-04-07 17:43:00,
2013-04-07 13:53:00,62.0,38.0,-100.00,SSW,210,7.0,20.0,41,0.00,,,-99.99,,2013-04-07 17:53:00,
2013-04-07 14:03:00,62.0,38.0,-100.00,South,190,12.0,21.0,40,0.00,,,-99.99,,2013-04-07 18:03:00,
2013-04-07 14:13:00,62.0,37.0,-100.00,South,190,12.0,21.0,39,0.00,,,-99.99,,2013-04-07 18:13:00,
2013-04-07 14:23:00,62.0,37.0,-100.00,South,190,12.0,21.0,39,0.00,,,-99.99,,2013-04-07 18:23:00,
2013-04-07 14:33:00,64.0,37.0,-100.00,South,185,12.0,21.0,38,0.00,,,-99.99,,2013-04-07 18:33:00,
2013-04-07 14:43:00,64.0,37.0,-100.00,South,175,14.0,24.0,38,0.00,,,-99.99,,2013-04-07 18:43:00,
2013-04-07 14:52:00,64.0,37.0,-100.00,South,175,14.0,24.0,38,0.00,,,-99.99,,2013-04-07 18:52:00,
2013-04-07 15:03:00,63.0,37.0,-100.00,South,185,14.0,23.0,38,0.00,,,-99.99,,2013-04-07 19:03:00,
2013-04-07 15:12:00,64.0,38.0,-100.00,South,190,10.0,21.0,38,0.00,,,-99.99,,2013-04-07 19:12:00,
2013-04-07 15:22:00,64.0,38.0,-100.00,South,190,10.0,21.0,38,0.00,,,-99.99,,2013-04-07 19:22:00,
2013-04-07 15:33:00,64.0,38.0,-100.00,SSW,205,12.0,21.0,38,0.00,,,-99.99,,2013-04-07 19:33:00,
2013-04-07 15:42:00,65.0,39.0,-100.00,SSW,200,9.0,21.0,38,0.00,,,-99.99,,2013-04-07 19:42:00,
2013-04-07 15:53:00,65.0,39.0,-100.00,SSW,200,9.0,21.0,38,0.00,,,-99.99,,2013-04-07 19:53:00,
2013-04-07 16:03:00,66.0,39.0,-100.00,South,190,10.0,21.0,37,0.00,,,-99.99,,2013-04-07 20:03:00,
2013-04-07 16:13:00,66.0,38.0,-100.00,South,180,13.0,23.0,36,0.00,,,-99.99,,2013-04-07 20:13:00,
2013-04-07 16:22:00,66.0,38.0,-100.00,South,180,13.0,23.0,36,0.00,,,-99.99,,2013-04-07 20:22:00,
2013-04-07 16:33:00,67.0,39.0,-100.00,SW,215,9.0,24.0,36,0.00,,,-99.99,,2013-04-07 20:33:00,
2013-04-07 16:43:00,68.0,40.0,-100.00,South,185,8.0,19.0,36,0.00,,,-99.99,,2013-04-07 20:43:00,
2013-04-07 16:52:00,68.0,40.0,-100.00,South,185,8.0,19.0,36,0.00,,,-99.99,,2013-04-07 20:52:00,
2013-04-07 17:04:00,68.0,39.0,-100.00,South,180,9.0,18.0,35,0.00,,,-99.99,,2013-04-07 21:04:00,
2013-04-07 17:13:00,68.0,40.0,-100.00,South,190,11.0,22.0,35,0.00,,,-99.99,,2013-04-07 21:13:00,
2013-04-07 17:22:00,68.0,40.0,-100.00,South,190,11.0,22.0,35,0.00,,,-99.99,,2013-04-07 21:22:00,
2013-04-07 17:34:00,68.0,39.0,-100.00,SSW,200,12.0,23.0,35,0.00,,,-99.99,,2013-04-07 21:34:00,
2013-04-07 17:43:00,69.0,40.0,-100.00,SSW,195,11.0,22.0,35,0.00,,,-99.99,,2013-04-07 21:43:00,
2013-04-07 17:53:00,69.0,40.0,-100.00,SSW,195,11.0,22.0,35,0.00,,,-99.99,,2013-04-07 21:53:00,
2013-04-07 18:04:00,69.0,40.0,-100.00,SW,215,9.0,22.0,35,0.00,,,-99.99,,2013-04-07 22:04:00,
2013-04-07 18:14:00,69.0,40.0,-100.00,SSW,195,7.0,17.0,35,0.00,,,-99.99,,2013-04-07 22:14:00,
2013-04-07 18:23:00,69.0,40.0,-100.00,SSW,195,7.0,17.0,35,0.00,,,-99.99,,2013-04-07 22:23:00,
2013-04-07 18:34:00,69.0,40.0,-100.00,SSW,195,9.0,19.0,35,0.00,,,-99.99,,2013-04-07 22:34:00,
2013-04-07 18:43:00,68.0,39.0,-100.00,SSW,200,9.0,22.0,35,0.00,,,-99.99,,2013-04-07 22:43:00,
2013-04-07 18:53:00,68.0,39.0,-100.00,SSW,200,9.0,22.0,35,0.00,,,-99.99,,2013-04-07 22:53:00,
2013-04-07 19:04:00,68.0,39.0,-100.00,South,170,8.0,18.0,35,0.00,,,-99.99,,2013-04-07 23:04:00,
2013-04-07 19:13:00,67.0,38.0,-100.00,SSW,200,7.0,13.0,35,0.00,,,-99.99,,2013-04-07 23:13:00,
2013-04-07 19:22:00,67.0,38.0,-100.00,SSW,200,7.0,13.0,35,0.00,,,-99.99,,2013-04-07 23:22:00,
2013-04-07 19:33:00,67.0,39.0,-100.00,SSW,200,8.0,14.0,36,0.00,,,-99.99,,2013-04-07 23:33:00,
2013-04-07 19:43:00,66.0,38.0,-100.00,SW,215,5.0,16.0,36,0.00,,,-99.99,,2013-04-07 23:43:00,
2013-04-07 19:52:00,66.0,38.0,-100.00,SW,215,5.0,16.0,36,0.00,,,-99.99,,2013-04-07 23:52:00,
2013-04-07 20:02:00,66.0,39.0,-100.00,SSW,210,6.0,12.0,37,0.00,,,-99.99,,2013-04-08 00:02:00,
2013-04-07 20:12:00,66.0,38.0,-100.00,South,185,7.0,12.0,37,0.00,,,-99.99,,2013-04-08 00:12:00,
2013-04-07 20:22:00,66.0,38.0,-100.00,South,185,7.0,12.0,37,0.00,,,-99.99,,2013-04-08 00:22:00,
2013-04-07 20:33:00,65.0,38.0,-100.00,SSW,195,9.0,16.0,37,0.00,,,-99.99,,2013-04-08 00:33:00,
2013-04-07 20:42:00,65.0,38.0,-100.00,SSW,195,7.0,14.0,37,0.00,,,-99.99,,2013-04-08 00:42:00,
2013-04-07 20:52:00,65.0,38.0,-100.00,SSW,195,7.0,14.0,37,0.00,,,-99.99,,2013-04-08 00:52:00,
2013-04-07 21:03:00,65.0,39.0,-100.00,SW,225,5.0,12.0,38,0.00,,,-99.99,,2013-04-08 01:03:00,
2013-04-07 21:12:00,65.0,38.0,-100.00,SW,225,4.0,9.0,38,0.00,,,-99.99,,2013-04-08 01:12:00,
2013-04-07 21:22:00,65.0,38.0,-100.00,SW,225,4.0,9.0,38,0.00,,,-99.99,,2013-04-08 01:22:00,
2013-04-07 21:34:00,65.0,39.0,-100.00,SW,220,4.0,10.0,38,0.00,,,-99.99,,2013-04-08 01:34:00,
2013-04-07 21:43:00,65.0,39.0,-100.00,WSW,245,5.0,12.0,38,0.00,,,-99.99,,2013-04-08 01:43:00,
2013-04-07 21:54:00,65.0,39.0,-100.00,WSW,245,5.0,12.0,38,0.00,,,-99.99,,2013-04-08 01:54:00,
2013-04-07 22:03:00,64.0,39.0,-100.00,WNW,300,7.0,20.0,39,0.00,,,-99.99,,2013-04-08 02:03:00,
2013-04-07 22:12:00,64.0,39.0,-100.00,West,275,1.0,9.0,39,0.00,,,-99.99,,2013-04-08 02:12:00,
2013-04-07 22:22:00,64.0,39.0,-100.00,West,275,1.0,9.0,39,0.00,,,-99.99,,2013-04-08 02:22:00,
2013-04-07 22:33:00,63.0,39.0,-100.00,South,180,2.0,3.0,41,0.00,,,-99.99,,2013-04-08 02:33:00,
2013-04-07 22:47:00,62.0,38.0,-100.00,NW,320,0.0,2.0,41,0.00,,,-99.99,,2013-04-08 02:47:00,
2013-04-07 22:53:00,62.0,38.0,-100.00,NW,320,0.0,2.0,41,0.00,,,-99.99,,2013-04-08 02:53:00,
2013-04-07 23:08:00,62.0,39.0,-100.00,SSW,195,2.0,2.0,43,0.00,,,-99.99,,2013-04-08 03:08:00,
2013-04-07 23:15:00,62.0,39.0,-100.00,SSW,205,2.0,5.0,44,0.00,,,-99.99,,2013-04-08 03:15:00,
2013-04-07 23:25:00,62.0,39.0,-100.00,SSW,205,2.0,5.0,44,0.00,,,-99.99,,2013-04-08 03:25:00,
2013-04-07 23:35:00,61.0,40.0,-100.00,South,170,4.0,5.0,45,0.00,,,-99.99,,2013-04-08 03:35:00,
2013-04-07 23:47:00,61.0,40.0,-100.00,South,185,3.0,7.0,46,0.00,,,-99.99,,2013-04-08 03:47:00,
2013-04-07 23:53:00,61.0,40.0,-100.00,South,185,3.0,7.0,46,0.00,,,-99.99,,2013-04-08 03:53:00,